TimeAST,TemperatureF,Dew PointF,Humidity,Sea Level PressureIn,VisibilityMPH,Wind Direction,Wind SpeedMPH,Gust SpeedMPH,PrecipitationIn,Events,Conditions,WindDirDegrees,DateUTC
12:00 AM,35.4,33.3,92,29.97,-9999.0,South,6.9,-,N/A,,Unknown,170,2013-02-20 04:00:00
1:00 AM,34.5,33.1,94,29.93,-9999.0,SE,6.9,-,N/A,,Unknown,130,2013-02-20 05:00:00
2:00 AM,35,34,94,29.91,,ESE,5.8,,,,,120,2013-02-20 06:00:00
2:00 AM,35.1,34.0,96,29.91,-9999.0,ESE,5.8,-,N/A,,Unknown,120,2013-02-20 06:00:00
3:00 AM,35.4,34.2,95,29.90,-9999.0,ESE,4.6,-,N/A,,Unknown,120,2013-02-20 07:00:00
4:00 AM,36.1,34.0,92,29.86,-9999.0,ESE,10.4,-,N/A,,Unknown,120,2013-02-20 08:00:00
5:00 AM,37,34,86,29.82,,ESE,16.1,,,,,120,2013-02-20 09:00:00
5:00 AM,36.9,34.3,91,29.82,-9999.0,ESE,16.1,-,N/A,,Unknown,120,2013-02-20 09:00:00
6:00 AM,36.7,35.4,95,29.76,-9999.0,East,19.6,-,0.06,,Unknown,100,2013-02-20 10:00:00
7:00 AM,37.0,35.8,95,29.70,-9999.0,East,20.7,27.6,N/A,,Unknown,100,2013-02-20 11:00:00
8:00 AM,37,36,92,29.65,,East,25.3,,,,,100,2013-02-20 12:00:00
8:00 AM,36.9,35.6,95,29.65,-9999.0,East,25.3,-,0.07,,Unknown,100,2013-02-20 12:00:00
9:00 AM,37.4,36.3,96,29.56,-9999.0,ESE,32.2,40.3,0.04,,Unknown,110,2013-02-20 13:00:00
10:00 AM,37.9,37.4,98,29.48,-9999.0,ESE,32.2,41.4,0.15,,Unknown,110,2013-02-20 14:00:00
11:00 AM,40,39,97,29.48,,SE,29.9,,,,,140,2013-02-20 15:00:00
11:00 AM,39.7,39.4,99,29.48,-9999.0,SE,29.9,38.0,0.11,,Unknown,140,2013-02-20 15:00:00
12:00 PM,40.3,39.9,99,29.45,-9999.0,SSW,10.4,-,N/A,,Unknown,210,2013-02-20 16:00:00
1:00 PM,46.6,44.4,92,29.44,-9999.0,WSW,11.5,-,N/A,,Unknown,250,2013-02-20 17:00:00
2:00 PM,44,36,66,29.43,,West,15.0,,,,,260,2013-02-20 18:00:00
2:00 PM,43.9,36.5,75,29.43,-9999.0,West,15.0,-,N/A,,Unknown,260,2013-02-20 18:00:00
3:00 PM,44.2,33.6,66,29.41,-9999.0,WSW,15.0,-,N/A,,Unknown,240,2013-02-20 19:00:00
4:00 PM,42.8,31.6,65,29.42,-9999.0,WSW,16.1,21.9,N/A,,Unknown,240,2013-02-20 20:00:00
5:00 PM,40,31,62,29.44,,WSW,19.6,,,,,240,2013-02-20 21:00:00
5:00 PM,39.9,31.5,72,29.44,-9999.0,WSW,19.6,-,N/A,,Unknown,240,2013-02-20 21:00:00
6:00 PM,36.5,29.8,77,29.47,-9999.0,WSW,16.1,24.2,N/A,,Unknown,250,2013-02-20 22:00:00
7:00 PM,34.5,29.5,82,29.49,-9999.0,WSW,11.5,-,N/A,,Unknown,240,2013-02-20 23:00:00
8:00 PM,35,31,80,29.49,,SW,18.4,,,,,230,2013-02-21 00:00:00
8:00 PM,34.5,31.1,87,29.49,-9999.0,SW,18.4,25.3,N/A,,Unknown,230,2013-02-21 00:00:00
9:00 PM,34.2,31.5,90,29.49,-9999.0,WSW,12.7,-,N/A,,Unknown,240,2013-02-21 01:00:00
10:00 PM,34.0,31.5,90,29.49,-9999.0,SW,12.7,-,N/A,,Unknown,230,2013-02-21 02:00:00
11:00 PM,34,30,78,29.48,,SW,15.0,,,,,230,2013-02-21 03:00:00
11:00 PM,33.6,29.7,85,29.48,-9999.0,SW,15.0,-,N/A,,Unknown,230,2013-02-21 03:00:00